When you browse on this site, cookies collect data to enhance your experience and personalize the content and advertising you see.
Visit our Privacy Policy to learn more. By continuing to use the site, you agree to this use of cookies and data.
  • In Sweden
  • List of Countries
  • For 7 days
  • Water Temperature
  • Satellite Maps
  • Weather Map
  • Weather Widgets
  • user-avatar
    Login

    Hourly Weather Chocen

    Today, 27 May, Monday

    Time Temperature Precipitation Wind Pressure Humidity
    00:00 +13°C° 0 mm 3 mps 748 mmHg 85%
    01:00 +13°C° 0 mm 3 mps 748 mmHg 86%
    02:00 +12°C° 0 mm 3 mps 747 mmHg 88%
    03:00 +12°C° 0 mm 3 mps 747 mmHg 89%
    04:00 +12°C° 0 mm 4 mps 747 mmHg 90%
    05:00 +14°C° 0 mm 4 mps 747 mmHg 85%
    06:00 +17°C° 0 mm 4 mps 747 mmHg 80%
    07:00 +17°C° 0 mm 5 mps 747 mmHg 75%
    08:00 +20°C° 0 mm 5 mps 747 mmHg 70%
    09:00 +21°C° 0 mm 6 mps 747 mmHg 64%
    10:00 +22°C° 0 mm 7 mps 747 mmHg 58%
    11:00 +23°C° 0 mm 6 mps 747 mmHg 56%
    12:00 +23°C° 0 mm 6 mps 746 mmHg 54%
    13:00 +24°C° 0 mm 6 mps 746 mmHg 53%
    14:00 +25°C° 0.1 mm 5 mps 746 mmHg 54%
    15:00 +25°C° 0.1 mm 5 mps 746 mmHg 55%
    16:00 +25°C° 0.1 mm 4 mps 746 mmHg 56%
    17:00 +24°C° 0 mm 3 mps 746 mmHg 62%
    18:00 +21°C° 0 mm 2 mps 746 mmHg 69%
    19:00 +21°C° 0 mm 1 mps 746 mmHg 76%
    20:00 +20°C° 0 mm 1 mps 746 mmHg 79%
    21:00 +18°C° 0 mm 2 mps 745 mmHg 82%
    22:00 +16°C° 0 mm 2 mps 745 mmHg 85%
    23:00 +17°C° 0 mm 2 mps 745 mmHg 86%

    Tomorrow, 28 May, Tuesday

    Time Temperature Precipitation Wind Pressure Humidity
    00:00 +17°C° 0 mm 2 mps 745 mmHg 86%
    01:00 +17°C° 0 mm 2 mps 744 mmHg 86%
    02:00 +17°C° 1.2 mm 2 mps 744 mmHg 89%
    03:00 +16°C° 1.2 mm 2 mps 744 mmHg 92%
    04:00 +16°C° 1.2 mm 2 mps 743 mmHg 96%
    05:00 +17°C° 2.7 mm 3 mps 743 mmHg 94%
    06:00 +17°C° 2.7 mm 4 mps 743 mmHg 93%
    07:00 +16°C° 2.7 mm 5 mps 742 mmHg 92%
    08:00 +17°C° 0.1 mm 5 mps 742 mmHg 90%
    09:00 +17°C° 0.1 mm 5 mps 742 mmHg 87%
    10:00 +17°C° 0.1 mm 5 mps 742 mmHg 85%
    11:00 +17°C° 0.3 mm 5 mps 742 mmHg 85%
    12:00 +18°C° 0.3 mm 4 mps 742 mmHg 86%
    13:00 +18°C° 0.3 mm 3 mps 743 mmHg 87%
    14:00 +18°C° 0.1 mm 4 mps 743 mmHg 87%
    15:00 +17°C° 0.1 mm 4 mps 743 mmHg 87%
    16:00 +16°C° 0.1 mm 5 mps 743 mmHg 87%
    17:00 +15°C° 0.2 mm 5 mps 744 mmHg 88%
    18:00 +14°C° 0.2 mm 6 mps 744 mmHg 90%
    19:00 +13°C° 0.2 mm 6 mps 745 mmHg 91%
    20:00 +11°C° 0.2 mm 6 mps 745 mmHg 92%
    21:00 +11°C° 0.2 mm 6 mps 746 mmHg 92%
    22:00 +10°C° 0.2 mm 5 mps 746 mmHg 93%
    23:00 +10°C° 0.1 mm 5 mps 747 mmHg 91%

    Day after tomorrow, 29 May, Wednesday

    Time Temperature Precipitation Wind Pressure Humidity
    00:00 +9°C° 0.1 mm 5 mps 747 mmHg 90%
    01:00 +8°C° 0.1 mm 5 mps 748 mmHg 89%
    02:00 +8°C° 0 mm 5 mps 748 mmHg 89%
    03:00 +7°C° 0 mm 4 mps 749 mmHg 89%
    04:00 +7°C° 0 mm 4 mps 749 mmHg 88%
    05:00 +8°C° 0 mm 4 mps 750 mmHg 84%
    06:00 +9°C° 0 mm 5 mps 751 mmHg 80%
    07:00 +9°C° 0 mm 5 mps 751 mmHg 76%
    08:00 +10°C° 0 mm 5 mps 752 mmHg 72%
    09:00 +13°C° 0 mm 5 mps 752 mmHg 67%
    10:00 +14°C° 0 mm 4 mps 752 mmHg 62%
    11:00 +15°C° 0 mm 4 mps 753 mmHg 59%
    12:00 +17°C° 0 mm 4 mps 753 mmHg 55%
    13:00 +18°C° 0 mm 4 mps 753 mmHg 52%
    14:00 +18°C° 0 mm 4 mps 753 mmHg 53%
    15:00 +18°C° 0 mm 4 mps 753 mmHg 53%
    16:00 +18°C° 0 mm 4 mps 753 mmHg 54%
    17:00 +16°C° 0 mm 3 mps 753 mmHg 60%
    18:00 +14°C° 0 mm 3 mps 754 mmHg 66%
    19:00 +14°C° 0 mm 2 mps 754 mmHg 72%
    20:00 +13°C° 0 mm 2 mps 754 mmHg 76%
    21:00 +10°C° 0 mm 2 mps 755 mmHg 79%
    22:00 +9°C° 0 mm 3 mps 755 mmHg 83%
    23:00 +8°C° 0 mm 2 mps 755 mmHg 80%

    30 May, Thursday

    Time Temperature Precipitation Wind Pressure Humidity
    00:00 +7°C° 0 mm 2 mps 755 mmHg 77%
    01:00 +7°C° 0 mm 2 mps 756 mmHg 73%
    02:00 +6°C° 0 mm 2 mps 756 mmHg 73%
    03:00 +6°C° 0 mm 2 mps 756 mmHg 73%
    04:00 +7°C° 0 mm 1 mps 756 mmHg 72%
    05:00 +8°C° 0 mm 1 mps 756 mmHg 68%
    06:00 +10°C° 0 mm 1 mps 756 mmHg 63%
    07:00 +11°C° 0 mm 1 mps 756 mmHg 59%
    08:00 +13°C° 0 mm 1 mps 756 mmHg 56%
    09:00 +15°C° 0 mm 1 mps 756 mmHg 54%
    10:00 +18°C° 0 mm 1 mps 756 mmHg 52%
    11:00 +19°C° 0 mm 1 mps 756 mmHg 50%
    12:00 +20°C° 0 mm 1 mps 755 mmHg 48%
    13:00 +21°C° 0 mm 1 mps 755 mmHg 46%
    14:00 +21°C° 0 mm 1 mps 755 mmHg 46%
    15:00 +21°C° 0 mm 1 mps 755 mmHg 47%
    16:00 +20°C° 0 mm 2 mps 755 mmHg 48%
    17:00 +19°C° 0 mm 2 mps 755 mmHg 54%
    18:00 +19°C° 0 mm 1 mps 755 mmHg 60%
    19:00 +18°C° 0 mm 1 mps 755 mmHg 66%
    20:00 +15°C° 0 mm 2 mps 755 mmHg 68%
    21:00 +14°C° 0 mm 2 mps 755 mmHg 70%
    22:00 +12°C° 0 mm 3 mps 755 mmHg 72%
    23:00 +11°C° 0 mm 3 mps 755 mmHg 73%

    31 May, Friday

    Time Temperature Precipitation Wind Pressure Humidity
    00:00 +11°C° 0 mm 3 mps 755 mmHg 74%
    01:00 +10°C° 0 mm 3 mps 754 mmHg 75%
    02:00 +10°C° 0 mm 3 mps 754 mmHg 76%
    03:00 +10°C° 0 mm 3 mps 754 mmHg 76%
    04:00 +10°C° 0 mm 3 mps 754 mmHg 77%
    05:00 +12°C° 0 mm 3 mps 754 mmHg 75%
    06:00 +13°C° 0 mm 3 mps 754 mmHg 72%
    07:00 +16°C° 0 mm 3 mps 754 mmHg 69%
    08:00 +18°C° 0 mm 3 mps 753 mmHg 66%
    09:00 +20°C° 0 mm 3 mps 753 mmHg 63%
    10:00 +21°C° 0 mm 3 mps 753 mmHg 60%
    11:00 +22°C° 0.1 mm 3 mps 752 mmHg 59%
    12:00 +22°C° 0.1 mm 3 mps 752 mmHg 59%
    13:00 +24°C° 0.1 mm 3 mps 752 mmHg 58%
    14:00 +24°C° 0.8 mm 3 mps 752 mmHg 62%
    15:00 +22°C° 0.8 mm 3 mps 751 mmHg 66%
    16:00 +22°C° 0.8 mm 3 mps 751 mmHg 70%
    17:00 +20°C° 1.3 mm 3 mps 751 mmHg 77%
    18:00 +19°C° 1.3 mm 4 mps 752 mmHg 83%
    19:00 +18°C° 1.3 mm 4 mps 752 mmHg 90%
    20:00 +17°C° 0.3 mm 4 mps 752 mmHg 91%
    21:00 +15°C° 0.3 mm 4 mps 752 mmHg 93%
    22:00 +15°C° 0.3 mm 4 mps 753 mmHg 95%
    23:00 +14°C° 0.1 mm 5 mps 753 mmHg 95%

    1 June, Saturday

    Time Temperature Precipitation Wind Pressure Humidity
    00:00 +13°C° 0.1 mm 5 mps 753 mmHg 95%
    01:00 +12°C° 0.1 mm 5 mps 754 mmHg 95%
    02:00 +11°C° 0.1 mm 6 mps 754 mmHg 94%
    03:00 +10°C° 0.1 mm 6 mps 755 mmHg 93%
    04:00 +10°C° 0.1 mm 6 mps 755 mmHg 93%
    05:00 +10°C° 0 mm 6 mps 755 mmHg 92%
    06:00 +9°C° 0 mm 6 mps 756 mmHg 90%
    07:00 +9°C° 0 mm 6 mps 756 mmHg 89%
    08:00 +10°C° 0 mm 6 mps 757 mmHg 81%
    09:00 +13°C° 0 mm 6 mps 757 mmHg 74%
    10:00 +14°C° 0 mm 6 mps 757 mmHg 66%
    11:00 +15°C° 0 mm 7 mps 758 mmHg 60%
    12:00 +16°C° 0 mm 7 mps 758 mmHg 55%
    13:00 +17°C° 0 mm 7 mps 758 mmHg 49%
    14:00 +17°C° 0 mm 7 mps 758 mmHg 49%
    15:00 +16°C° 0 mm 7 mps 758 mmHg 49%
    16:00 +16°C° 0 mm 7 mps 758 mmHg 49%
    17:00 +14°C° 0 mm 6 mps 758 mmHg 53%
    18:00 +13°C° 0 mm 6 mps 758 mmHg 58%
    19:00 +10°C° 0 mm 5 mps 759 mmHg 62%
    20:00 +9°C° 0 mm 5 mps 759 mmHg 63%
    21:00 +7°C° 0 mm 4 mps 760 mmHg 65%
    22:00 +6°C° 0 mm 4 mps 760 mmHg 66%
    23:00 +6°C° 0 mm 4 mps 760 mmHg 66%
    Show more